COSMOS 1275 DEB, 42130

Orbit data source: Space-Track

COSMOS 1275 DEB, 42130 is space debris in LEO originally from a launch on Thu, 04 Jun 1981 UTC launched from the Plesetsk Missile And Space Complex (PKMTR). Debris objects in space refer to the collection of defunct objects orbiting the Earth. Examples of debris include non-operational satellites, rocket bodies, and fragments generated from explosions, collisions, or faulty payload assembly.

Loading next visibility...
Identifier
42130, 1981-053QS
Orbit
LEO
Country
Flag of CISCIS
Related business
Manufacturer
Unknown
Mission
Spacecraft
Bus & Motor
Unknown
Mass
Unknown
Launch date (UTC)
1981-06-04 (44 years ago)
Launch vehicle
Unknown
Launch site
Plesetsk Missile And Space Complex (PKMTR)
Object type
Payload
Rocket body
Debris
Shape & HBR
Unknown shape, 0.1 m
Radar Cross Section
Small (<0.1 m²)

Expand to show TLE details & history
Last TLE update: 19 hours ago

TLE from 19 hours ago
0 COSMOS 1275 DEB
1 42130U 81053QS  25290.71373828  .00004633  00000-0  21407-2 0  9996
2 42130  82.8553 283.5537 0019051 299.2271  60.7005 14.20658400612135
Epoch: 2025-10-17T17:07Z
TLE epoch observation values (Epoch: 2025-10-17T17:07:46.987Z)
Latitude
Longitude
0.15277°
Altitude
819.393 km
Speed
7.447 km/s
True Right ascension
18h 54m 12s
True Declination
0° 00' 00"
Sunlit
Object was in daylight at epoch
Visualization orbit readout
Latitude
Unknown
Longitude
Unknown
Altitude
Unknown
Speed
Unknown
Apparent Right ascension
Unknown
Apparent Declination
Unknown
Sunlit
N/A
Visualization observer readout
Local Sidereal Time
06:49:58
Azimuth
Unknown
Elevation
Unknown
Doppler factor
Unknown
Orbital elements
Apogee altitude
833.93 km
Perigee altitude
806.503 km
Semi-major axis
7,198.353 km
Eccentricity
0.00191
Inclination
82.8553°
RAAN
283.5537°
Arg. of periapsis
299.2271°
True anomaly
60.8911°
Mean anomaly
60.7005°
Eccentric anomaly
60.79578°
Mean motion
3.5538 °/min
Orbital period
101.3 mins
BSTAR
0.0021407
Loading maneuver chart data...
Computing Atmospheric mass density...

Documentation

Showing up to 5 results
|